Welcome to the New NWS' Forecast!
Most changes are behind the scenes, but click here for differences you might notice.

Regional Weather Roundup (RWR)

Issued by Gray - Portland, ME (GYX)

                            
000
ASUS41 KGYX 220610
RWRGYX
WEATHER ROUNDUP FOR MAINE AND NEW HAMPSHIRE
NATIONAL WEATHER SERVICE GRAY ME
200 AM EDT MON OCT 22 2018

MEZ002-005-006-010-012-015-018-020-021-024-026-027-029-220700-
MAINE
  
CITY           SKY/WX    TMP DP  RH WIND       PRES   REMARKS
PORTLAND       FAIR      30  20  66 SW5       30.04R                  
6HR MIN TEMP:  30; 6HR MAX TEMP:  36;                                

SANFORD        FAIR      31  22  69 W5        30.05R                  
BAR HARBOR     FAIR      31  21  66 W3        29.97R                  
WISCASSET      CLOUDY    34  24  67 CALM      30.03R                  
6HR MIN TEMP:  31; 6HR MAX TEMP:  36;                                

ROCKLAND       FAIR      28  23  81 W7        29.99R                  
FRYEBURG       FAIR      35  16  45 VRB7      30.02R                  
6HR MIN TEMP:  31; 6HR MAX TEMP:  36;                                

LEWISTONAUBURN CLOUDY    36  20  52 NW7       30.01S                  
AUGUSTA        CLOUDY    36  19  50 W7        29.99R                  
6HR MIN TEMP:  33; 6HR MAX TEMP:  36;                                

WATERVILLE     MOCLDY    35  19  52 W9        29.95R                  
BANGOR         FAIR      29  19  66 W5        29.97R                  
6HR MIN TEMP:  29; 6HR MAX TEMP:  36;                                

GREENVILLE       N/A     29  18  63 NW14G22   29.86R WCI  18          
6HR MIN TEMP:  29; 6HR MAX TEMP:  31;                                

MILLINOCKET    FAIR      32  18  56 W6        29.92R                  
6HR MIN TEMP:  29; 6HR MAX TEMP:  34;                                

HOULTON        FAIR      28  16  60 W3        29.85R                  
6HR MIN TEMP:  27; 6HR MAX TEMP:  35; 6HR PCP: TRACE;                

PRESQUE ISLE   FAIR      28  17  63 W5        29.85R                  
6HR MIN TEMP:  27; 6HR MAX TEMP:  33; 6HR PCP: TRACE;                

FRENCHVILLE    FAIR      28  12  51 NW15G23   29.79R WCI  16          
6HR MIN TEMP:  28; 6HR MAX TEMP:  31; 6HR PCP: TRACE;                

CARIBOU        FAIR      28  15  58 VRB5      29.82R                  
6HR MIN TEMP:  28; 6HR MAX TEMP:  32;                                

$$

NHZ002-005-008-009-011-012-014-220700-
NEW HAMPSHIRE
  
CITY           SKY/WX    TMP DP  RH WIND       PRES   REMARKS
PORTSMOUTH     MOCLDY    35  19  51 W6        30.05R                  
ROCHESTER      FAIR      34  21  59 VRB6      30.05R                  
6HR MIN TEMP:  33; 6HR MAX TEMP:  37;                                

NASHUA         FAIR      28  24  85 CALM      30.10R                  
MANCHESTER     FAIR      34  18  52 W3        30.07S                  
6HR MIN TEMP:  34; 6HR MAX TEMP:  38;                                

CONCORD        FAIR      34  17  50 W9        30.07R                  
6HR MIN TEMP:  33; 6HR MAX TEMP:  36;                                

LACONIA        FAIR      34  19  54 W8        30.06R                  
PLYMOUTH       MOCLDY    33  20  59 W5        30.06R                  
BERLIN         CLOUDY    33  21  61 VRB6      29.99R                  
6HR MIN TEMP:  32; 6HR MAX TEMP:  34; 6HR PCP: TRACE;                

WHITEFIELD     FLURRIES  32  22  66 W8        30.03R                  
6HR MIN TEMP:  32; 6HR MAX TEMP:  34; 6HR PCP: TRACE;                

JAFFREY        FAIR      29  21  72 CALM      30.07R                  
6HR MIN TEMP:  28; 6HR MAX TEMP:  35;                                

KEENE          FAIR      26  24  92 CALM      30.10R                  
LEBANON        FAIR      26  17  68 S3        30.08R                  
6HR MIN TEMP:  26; 6HR MAX TEMP:  37;                                

MT WASHINGTON  SNOW       7   7 100 W60         N/A  VSB 1/16WCI -23  
6HR MIN TEMP:   7; 6HR MAX TEMP:   9; 6HR PCP:  0.03;                

$$

VTZ005-007-008-220700-
VERMONT
  
CITY           SKY/WX    TMP DP  RH WIND       PRES   REMARKS
ST JOHNSBURY     N/A     33  21  61 MISG      30.04R                  
MONTPELIER     CLOUDY    31  18  58 NW7       30.08R                  
BURLINGTON     CLOUDY    37  18  46 NW7       30.10R                  
$$

MAZ007-012-024-CTZ003-RIZ002-NYZ038-NYZ072-220700-
SOUTHERN NEW ENGLAND AND NY
  
CITY           SKY/WX    TMP DP  RH WIND       PRES   REMARKS
BOSTON         FAIR      37  20  50 W7        30.11                   
WORCESTER      FAIR      28  20  71 W7        30.07R                  
NANTUCKET      FAIR      39  21  48 NW13      30.10R                  
PROVIDENCE     FAIR      30  25  81 W5        30.14R                  
HARTFORD       FAIR      30  26  85 S3        30.14R                  
ALBANY         CLOUDY    37  29  72 CALM      30.14R                  
NEW YORK CITY  FAIR      44  25  47 W12       30.19R                  
$$

ANZ081-ANZ082-ANZ150-NHZ014-MEZ023>029-220700-
COASTAL MARINE OBSERVATIONS
  
STATION/POSITION TIME  TEMP    WIND        PRES    WAVE
                       AIR SEA DIR/SP/G            HT/PER
                 (UTC) (F)     (DEG/KT/KT) (MB)    (FT/S)
MOUNT DESERT ROC 0600   39     300/ 24/ 27 1014.7R
MATINICUS ROCK   0500   39     310/ 21/ 23 1014.5R
ISLE OF SHOALS   0500   38     280/ 18/ 21 1017.1R
JEFFREYS LEDGE   0506      55                N/A     5/ 5
$$

.............KEY..............
   WCI - WIND CHILL
   TC  - TEMPERATURE IN CELSIUS
   VSB - VISIBILITY IN MILES
   HX  - HEAT INDEX
   FAIR- INDICATES FEW OR NO CLOUDS BELOW 12,000 FT, WITH NO 
         SIGNIFICANT WEATHER AND/OR OBSTRUCTIONS TO VISIBILITY.